KAL907 RKSI-EGLL

Flight info

Callsign KAL907
Flight time N/A
Altitude 32000
Route NOPIK2Y NOPIK Y697 AGAVO/K0917S0975 A591 IKEKA W4 HCH W200 DOVIV W55 PAMRU W34 LADIX B339 ASILA A575 UPREK W28 LAGEB W66 NUKTI B215 KABDO W119 GOBOK A343 RULAD/K0885F320 M610 ARBOL Z621 ELAHA N147 OTBOR/N0476F320 A480 TIMGA B476 METKA L88 RASAM N199 LUSAL M11 REBLO UM11 CRM UL746 ODERO DCT LUGEB DCT SOKRU DCT DEGET DCT ABETI DCT RENKA DCT INBED DCT BOMBI DCT ADKUV DCT SOGRI DCT DENUT L608 LOGAN
Aircraft B77W/H-SDE1E2E3FGHIJ2J3J4J5M1RWXY/LB1D1

Departure

Time 2026-05-08 01:57
Airport Incheon International Airport (RKSI)

Arrival

Time N/A
Airport London Heathrow Airport (EGLL)
Time Latitude Longitude Altitude Speed Heading
2026-05-08 01:53 37.44916 126.44089 37 ft 20 kts 143°
2026-05-08 01:53 37.44806 126.44180 37 ft 16 kts 144°
2026-05-08 01:54 37.44706 126.44271 37 ft 19 kts 145°
2026-05-08 01:54 37.44638 126.44330 37 ft 13 kts 145°
2026-05-08 01:54 37.44557 126.44402 37 ft 15 kts 145°
2026-05-08 01:54 37.44478 126.44384 37 ft 13 kts 223°
2026-05-08 01:55 37.44431 126.44309 37 ft 4 kts 234°
2026-05-08 01:55 37.44421 126.44290 37 ft 0 kts 234°
2026-05-08 01:55 37.44415 126.44280 37 ft 3 kts 234°
2026-05-08 01:55 37.44383 126.44224 37 ft 13 kts 234°
2026-05-08 01:56 37.44408 126.44116 37 ft 10 kts 325°
2026-05-08 01:56 37.44423 126.44102 37 ft 11 kts 325°
2026-05-08 01:56 37.44690 126.43863 37 ft 82 kts 324°
2026-05-08 01:56 37.45332 126.43293 37 ft 143 kts 324°
2026-05-08 01:57 37.46287 126.42440 40 ft 190 kts 325°
2026-05-08 01:57 37.47401 126.41462 405 ft 196 kts 319°
2026-05-08 01:57 37.48244 126.40166 951 ft 193 kts 297°
2026-05-08 01:57 37.48942 126.38782 1762 ft 183 kts 310°
2026-05-08 01:58 37.49784 126.37555 2290 ft 192 kts 311°
2026-05-08 01:58 37.50390 126.35955 2517 ft 214 kts 284°
2026-05-08 01:58 37.50498 126.34052 2940 ft 222 kts 277°
2026-05-08 01:58 37.50538 126.32083 3399 ft 229 kts 276°
2026-05-08 01:59 37.50567 126.30045 3886 ft 234 kts 276°
2026-05-08 01:59 37.50603 126.27991 4519 ft 235 kts 277°
2026-05-08 01:59 37.50645 126.25928 5141 ft 236 kts 277°
2026-05-08 01:59 37.50692 126.23850 5743 ft 238 kts 277°
2026-05-08 02:00 37.50740 126.21767 6377 ft 239 kts 278°
2026-05-08 02:00 37.50787 126.19670 6933 ft 240 kts 276°
2026-05-08 02:00 37.50440 126.17568 7332 ft 258 kts 251°
2026-05-08 02:00 37.49469 126.15627 7807 ft 265 kts 245°
2026-05-08 02:01 37.48450 126.13699 8337 ft 266 kts 246°
2026-05-08 02:01 37.47427 126.11750 8915 ft 267 kts 246°
2026-05-08 02:01 37.46400 126.09793 9471 ft 269 kts 246°
2026-05-08 02:01 37.45365 126.07823 10023 ft 271 kts 246°
2026-05-08 02:02 37.44315 126.05816 10350 ft 282 kts 246°
2026-05-08 02:02 37.43205 126.03687 10476 ft 300 kts 245°
2026-05-08 02:02 37.42023 126.01426 10628 ft 318 kts 245°
2026-05-08 02:02 37.40939 125.98972 10718 ft 323 kts 259°
2026-05-08 02:03 37.40645 125.96195 10874 ft 322 kts 276°
2026-05-08 02:03 37.40665 125.93327 11289 ft 333 kts 275°
2026-05-08 02:03 37.40640 125.90391 11956 ft 337 kts 274°
2026-05-08 02:03 37.40602 125.87434 12795 ft 339 kts 274°
2026-05-08 02:04 37.40563 125.84460 13609 ft 342 kts 274°
2026-05-08 02:04 37.40523 125.81455 14311 ft 345 kts 274°
2026-05-08 02:04 37.40484 125.78429 15053 ft 347 kts 274°
2026-05-08 02:04 37.40443 125.75393 15822 ft 348 kts 274°
2026-05-08 02:05 37.40402 125.72341 16529 ft 351 kts 274°
2026-05-08 02:05 37.40360 125.69262 17247 ft 353 kts 274°
2026-05-08 02:05 37.40331 125.67216 17741 ft 354 kts 274°
2026-05-08 02:05 37.40273 125.63055 18675 ft 357 kts 274°
2026-05-08 02:06 37.40246 125.60980 19060 ft 359 kts 274°
2026-05-08 02:06 37.40206 125.57824 19637 ft 363 kts 274°
2026-05-08 02:06 37.40164 125.54638 20214 ft 366 kts 274°
2026-05-08 02:06 37.40121 125.51431 20791 ft 369 kts 273°
2026-05-08 02:07 37.40076 125.48192 21336 ft 372 kts 273°
2026-05-08 02:07 37.40030 125.44927 21882 ft 375 kts 273°
2026-05-08 02:07 37.39982 125.41633 22446 ft 378 kts 273°
2026-05-08 02:07 37.39933 125.38316 23011 ft 381 kts 273°
2026-05-08 02:08 37.39883 125.34976 23555 ft 383 kts 273°
2026-05-08 02:08 37.39832 125.31613 24007 ft 386 kts 272°
2026-05-08 02:08 37.39779 125.28229 24474 ft 388 kts 272°
2026-05-08 02:08 37.39725 125.24834 24953 ft 389 kts 272°
2026-05-08 02:09 37.39673 125.21430 25392 ft 391 kts 273°
2026-05-08 02:09 37.39617 125.17999 25795 ft 394 kts 273°
2026-05-08 02:09 37.39559 125.14549 26217 ft 396 kts 273°
2026-05-08 02:09 37.39500 125.11084 26663 ft 397 kts 273°
2026-05-08 02:10 37.39439 125.07605 27102 ft 399 kts 273°
2026-05-08 02:10 37.39378 125.04114 27528 ft 400 kts 273°
2026-05-08 02:10 37.39316 125.00600 27923 ft 400 kts 272°
2026-05-08 02:10 37.39252 124.97067 28426 ft 400 kts 273°
2026-05-08 02:11 37.39188 124.93568 28795 ft 402 kts 273°
2026-05-08 02:11 37.39123 124.90044 29074 ft 405 kts 273°
2026-05-08 02:11 37.39057 124.86497 29367 ft 407 kts 273°
2026-05-08 02:11 37.38988 124.82934 29686 ft 408 kts 273°
2026-05-08 02:12 37.38917 124.79358 30001 ft 410 kts 273°
2026-05-08 02:12 37.38843 124.75780 30328 ft 409 kts 272°
2026-05-08 02:12 37.38768 124.72205 30660 ft 408 kts 273°
2026-05-08 02:12 37.38693 124.68644 30976 ft 407 kts 273°
2026-05-08 02:13 37.38618 124.65083 31244 ft 407 kts 272°
2026-05-08 02:13 37.38542 124.61519 31511 ft 407 kts 272°
2026-05-08 02:13 37.38465 124.57961 31787 ft 407 kts 272°
2026-05-08 02:13 37.38387 124.54405 32003 ft 408 kts 272°
2026-05-08 02:14 37.38148 124.47284 32094 ft 412 kts 267°
2026-05-08 02:14 37.36661 124.40295 32096 ft 415 kts 257°
2026-05-08 02:15 37.34131 124.33725 32100 ft 424 kts 246°
2026-05-08 02:15 37.30916 124.27503 32101 ft 425 kts 246°
2026-05-08 02:16 37.27725 124.21257 32106 ft 425 kts 246°
2026-05-08 02:16 37.24558 124.14997 32104 ft 424 kts 246°
2026-05-08 02:17 37.21325 124.08739 32112 ft 425 kts 245°
2026-05-08 02:17 37.18051 124.02563 32107 ft 425 kts 245°
2026-05-08 02:18 37.14830 123.96423 32113 ft 424 kts 246°